星链-31025 (STARLINK-31025 )

导读

STARLINK-31025是美国SpaceX公司星链(Starlink)星座中的卫星,于2023年12月23日发射入轨,属于低轨宽带通信卫星。星链计划旨在为全球提供覆盖广泛的高速互联网服务,该卫星搭载通信载荷,采用先进的空间技术,具备自主运行能力,服务周期约5-7年,退役后会受控离轨坠入大气层销毁,是星链星座组网建设的组成部分,进一步拓展了全球低轨通信网络覆盖。

基本信息
目录编号:
58634
目录名称:
STARLINK-31025
国际标识:
2023-203S
轨道中心:
EARTH
卫星名称:
星链-31025
卫星全名:
星链-31025 (STARLINK-31025 )
卫星状态:
在轨 (已飞行986 天)
发射日期:
2023-12-23 UTC
国别 :
美国 (US)
星等 :
--
轨道信息
数据来源 国际轨道数据
星历时间: 2026-09-04T10:53:10+0800
6小时前
查看轨道信息
半长轴: 6861.188km
偏心率: 0.0001153
轨道倾角: 43.001°
近地点辐角 278.091°
升交点赤经 139.024°
平近点角 81.982°
近地点: 482.259km
远地点: 483.843km
周期: 94.267分钟
每日圈数: 15.275796
详细信息
固有亮度:
5
最大亮度:
0.3
卫星平台:
Starlink v2.0 mini
覆盖范围:
全球
运营商:
太空探索技术公司
运营商所在国:
美国
制造商(研发单位):
太空探索技术公司
制造商所在国:
美国
使用方式:
暂无
卫星简介
星链(Starlink)计划是由太空探索技术公司(SpaceX)提出的一个巨型低轨卫星互联网星座项目,计划在2019年至2024年间在太空搭建由约1.2万颗卫星组成的“星链”网络,其中1584颗将部署在地球上空550千米处的近地轨道,并从2020年开始工作。该卫星仍在工作。
2D轨道图
3D轨道图
轨道高度分析图
轨道倾角分析图
轨道综合分析图
查看轨道综合分析图
交会数据列表
事件ID 空间交会对象 最接近时刻(TCA) 交会距离 交会风险概率(CRP) 交会风险指数(CRI) 操作
CDM_260904-184005-863406-260321
2026-09-04T
18:40:16+0000
0.522 km
远距离
1.465949E-4 高风险 0.78
CDM_260904-183905-863406-642221
2026-09-04T
18:39:37+0000
0.792 km
远距离
4.510126E-5 中风险 0.68
CDM_260904-170605-863406-260322
2026-09-04T
17:06:07+0000
1.197 km
极远距离
1.101994E-5 中风险 0.56
CDM_260905-093405-863406-642221
2026-09-05T
09:34:04+0000
1.535 km
极远距离
4.810418E-6 低风险 0.49
CDM_260904-170505-863406-642222
2026-09-04T
17:05:28+0000
1.601 km
极远距离
4.214353E-6 低风险 0.47
CDM_260905-075905-863406-642221
2026-09-05T
07:59:55+0000
1.713 km
极远距离
3.430573E-6 低风险 0.46
CDM_260906-100205-863405-993921
2026-09-06T
10:02:07+0000
1.751 km
极远距离
2.691796E-6 低风险 0.44
CDM_260904-201405-863406-260321
2026-09-04T
20:14:26+0000
2.268 km
极远距离
1.677768E-6 低风险 0.39
CDM_260904-153105-863406-260322
2026-09-04T
15:31:58+0000
2.882 km
极远距离
1.12614E-6 低风险 0.36